Location: Unspecified
(35.7250°N, 0.0000°E)
Time: 08:31:01
(UTC+00:00)

Vanguard 1 - Pass Details

Date: 28 June 2019
Orbit: 653 x 3830 km, 34.3° (Epoch: 16 July)

Event Time Altitude Azimuth Distance (km) Brightness Sun altitude
Rises 05:31:44 0° 281° (W) 6,972 13.9 7.4°
Reaches altitude 10° 05:37:05 10° 279° (W) 5,485 13.4 8.4°
Maximum altitude 05:51:22 66° 202° (SSW) 1,795 11.4 11.1°
Drops below altitude 10° 05:58:52 10° 121° (ESE) 3,028 13.2 12.5°
Sets 06:01:00 0° 118° (ESE) 3,743 13.7 12.9°
